Monterey, CA

4:27 AM PST on November 21, 2017 (GMT -0800)
Monterey Peninsula

Weather History for KMRY - October, 2014

Change the Weather History Date:

Thursday, October 2, 2014

  Actual Average Record
Temperature  
Mean Temperature 74 °F 60 °F  
Max Temperature 91 °F 68 °F 91 °F (2014)
Min Temperature 57 °F 52 °F 45 °F (2002)
Degree Days  
Heating Degree Days 0    
Month to date heating degree days 0  
Since 1 July heating degree days 138  
Cooling Degree Days 9    
Month to date cooling degree days 11  
Year to date cooling degree days 109  
Growing Degree Days 24 (Base 50)    
Moisture  
Dew Point 37 °F    
Average Humidity 29    
Maximum Humidity 47    
Minimum Humidity 11    
Precipitation  
Precipitation 0.00 in - 0.00 in (2017)
Month to date precipitation 0.00  
Year to date precipitation 7.76  
Since 1 July precipitation 0.37  
Sea Level Pressure  
Sea Level Pressure 30.01 in    
Wind  
Wind Speed 4 mph (NE)    
Max Wind Speed 10 mph    
Max Gust Speed 23 mph    
Visibility 10 miles    
Events      
T = Trace of Precipitation, MM = Missing Value Source: NWS Daily Summary

Daily Weather History Graph

Daily Weather History Graph

Search for Another Location

Airport or City:

Trip Planner

Search our weather history database for the weather conditions in past years. The results will help you decide how hot, cold, wet, or windy it might be!

Date:

Astronomy

Oct. 02, 2014 Rise Set
Actual Time 7:03 AM PDT 6:49 PM PDT
Civil Twilight 6:37 AM PDT 7:14 PM PDT
Nautical Twilight 6:07 AM PDT 7:44 PM PDT
Astronomical Twilight 5:37 AM PDT 8:14 PM PDT
Moon 2:51 PM PDT (10/2) 12:34 AM PDT (10/2)
Length of Visible Light 12h 37m
Length of Day
11h 45m
First Quarter, 61% of the Moon is Illuminated
Oct 2
First Quarter
Oct 8
Full
Oct 15
Last Quarter
Oct 23
New
Oct 30
First Quarter

Hourly Weather History & Observations

Time (PDT) Temp. Dew Point Humidity Pressure Visibility Wind Dir Wind Speed Gust Speed Precip Events Conditions
12:54 AM 62.1 °F 41.0 °F 46% 29.96 in 10.0 mi ENE 6.9 mph - N/A   Clear
1:54 AM 62.1 °F 39.0 °F 43% 29.96 in 10.0 mi East 6.9 mph - N/A   Clear
2:54 AM 61.0 °F 37.0 °F 41% 29.97 in 10.0 mi East 5.8 mph - N/A   Clear
3:54 AM 57.0 °F 37.9 °F 49% 29.97 in 10.0 mi ESE 4.6 mph - N/A   Clear
4:54 AM 61.0 °F 33.1 °F 35% 29.97 in 10.0 mi ENE 5.8 mph - N/A   Clear
5:54 AM 60.1 °F 33.1 °F 36% 29.98 in 10.0 mi Calm Calm - N/A   Clear
6:54 AM 57.9 °F 33.1 °F 39% 29.99 in 10.0 mi Calm Calm - N/A   Clear
7:54 AM 60.1 °F 34.0 °F 38% 30.01 in 10.0 mi Calm Calm - N/A   Clear
8:54 AM 71.1 °F 34.0 °F 26% 30.02 in 10.0 mi Calm Calm - N/A   Clear
9:54 AM 75.0 °F 41.0 °F 29% 30.02 in 10.0 mi Calm Calm - N/A   Clear
10:54 AM 82.0 °F 39.9 °F 22% 30.03 in 10.0 mi Calm Calm - N/A   Clear
11:54 AM 89.1 °F 39.9 °F 18% 30.02 in 10.0 mi NW 4.6 mph - N/A   Clear
12:54 PM 89.1 °F 36.0 °F 15% 30.02 in 10.0 mi WNW 6.9 mph - N/A   Clear
1:54 PM 91.0 °F 30.0 °F 11% 30.01 in 10.0 mi WSW 8.1 mph - N/A   Clear
2:54 PM 90.0 °F 30.9 °F 12% 30.01 in 10.0 mi WSW 5.8 mph - N/A   Clear
3:54 PM 89.1 °F 35.1 °F 15% 30.01 in 10.0 mi West 8.1 mph - N/A   Clear
4:54 PM 88.0 °F 33.1 °F 14% 30.00 in 10.0 mi WSW 9.2 mph - N/A   Clear
5:54 PM 79.0 °F 46.0 °F 31% 30.02 in 10.0 mi NNW 6.9 mph - N/A   Clear
6:54 PM 73.0 °F 44.1 °F 35% 30.02 in 10.0 mi Calm Calm - N/A   Clear
7:54 PM 71.1 °F 43.0 °F 36% 30.03 in 10.0 mi Calm Calm - N/A   Clear
8:54 PM 68.0 °F 39.0 °F 35% 30.04 in 10.0 mi East 4.6 mph - N/A   Clear
9:54 PM 66.9 °F 37.9 °F 34% 30.05 in 10.0 mi East 4.6 mph - N/A   Clear
10:54 PM 69.1 °F 36.0 °F 30% 30.05 in 10.0 mi East 4.6 mph - N/A   Clear
11:54 PM 69.1 °F 36.0 °F 30% 30.05 in 10.0 mi East 5.8 mph - N/A   Clear